DELTA 1 DEB, 7043

Orbit data source: Space-Track

DELTA 1 DEB, 7043 is space debris in SSO originally from a launch on Tue, 06 Nov 1973 UTC launched from the Air Force Western Test Range (AFWTR). Debris objects in space refer to the collection of defunct objects orbiting the Earth. Examples of debris include non-operational satellites, rocket bodies, and fragments generated from explosions, collisions, or faulty payload assembly.

Loading next visibility...
Identifier
7043, 1973-086AK
Orbit
SSO
Last TLE update
1 day ago
Origin
Manufacturer
Unknown
Mission
Spacecraft
Bus & Motor
Unknown
Mass
Unknown
Launch date (UTC)
1973-11-06 (52 years ago)
Launch vehicle
Unknown
Launch site
Air Force Western Test Range (AFWTR)
Object type
Payload
Rocket body
Debris
Shape & HBR
Unknown
Radar Cross Section
Small (<0.1 m²)

Expand to show TLE details & history

TLE from 1 day ago
0 DELTA 1 DEB
1  7043U 73086AK  25126.04576159  .00000104  00000-0  57710-3 0  9999
2  7043 102.1707 150.3096 0216175 337.2843  85.6232 12.85312328412479
Epoch: 2025-05-06T01:05Z
Definitive object data (Epoch: 2025-05-06T01:05:53.801Z)
Latitude
62.79652°
Longitude
-114.99173°
Altitude
1,321.661 km
Speed
7.206 km/s
True Right ascension
08h 22m 31s
True Declination
62° 40' 00"
Sunlit
Object was in daylight at TLE epoch
Visualization TLE readout
Latitude
-77.32966°
Longitude
-16.51523°
Altitude
1,265.255 km
Speed
7.261 km/s
Apparent Right ascension
21h 09m 28s
Apparent Declination
-68° 36' 39"
Sunlit
Object is in daylight
Visualization observer readout
Local Sidereal Time
10:29:36
Azimuth
165.815° S
Elevation
-59.346°
Doppler factor
1
Orbital elements
Apogee altitude
1,484.074 km
Perigee altitude
1,151.344 km
Semi-major axis
7,695.846 km
Eccentricity
0.0216175
Inclination
102.1707°
RAAN
150.3096°
Arg. of periapsis
337.2843°
True anomaly
88.09749°
Mean anomaly
85.6232°
Eccentric anomaly
86.85993°
Mean motion
3.21483 °/min
BSTAR
0.0005771
Orbital period
111.98 mins
Loading maneuver chart data...
Loading SW <> Apogee altitude chart data...
Loading historical data...
Loading historical data...
Loading historical data...
Loading historical data...
Loading historical data...
Loading historical data...
Loading historical data...

DELTA 1 DEB Visibility forecast

Observer location: undefined°, undefined°

Span
Click to sort rows by Start time (UTC) header in descending order
Start Az.
Max El. time (UTC)
Max El. Az.
Max El.
End time (UTC)
End Az.
8 mins2025-05-07 03:02:18.558Z230.36° WSW2025-05-07 03:06:18.558Z266.023° W16.888°2025-05-07 03:10:18.558Z301.811° NW
9 mins2025-05-07 12:56:18.558Z60.285° ENE2025-05-07 13:00:18.558Z93.276° ESE18.921°2025-05-07 13:05:18.558Z132.381° SE
15 mins2025-05-07 14:44:18.558Z16.88° NNE2025-05-07 14:51:18.558Z232.808° WSW44.803°2025-05-07 14:59:18.558Z202.408° SSW
10 mins2025-05-07 16:35:18.558Z345.358° N2025-05-07 16:40:18.558Z303.472° NW20.01°2025-05-07 16:45:18.558Z265.742° W
9 mins2025-05-07 23:39:18.558Z90.746° ESE2025-05-07 23:43:18.558Z52.765° ENE20.272°2025-05-07 23:48:18.558Z9.359° NNE
13 mins2025-05-08 01:26:18.558Z165.277° S2025-05-08 01:32:18.558Z240.558° WSW44.637°2025-05-08 01:39:18.558Z339.85° N
|